Tracking 30995 objects as of 5-Jul-2025
HD Live streaming from Space Station
objects crossing your sky now

STARLINK-5298

Track STARLINK-5298 now!
10-day predictions
STARLINK-5298 is classified as:


NORAD ID: 55281
Int'l Code: 2023-010N
Perigee: 576.8 km
Apogee: 581.7 km
Inclination: 70.0 °
Period: 96.1 minutes
Semi major axis: 6950 km
RCS: Unknown
Launch date: January 19, 2023
Source: United States (US)
Launch site: AIR FORCE WESTERN TEST RANGE (AFWTR)
Your satellite tracking list
DOUBLESTAR (TC-2)
Track 1 satellite(s)




NASA's NSSDC Master Catalog

Two Line Element Set (TLE):
1 55281U 23010N   25186.59278789  .00001608  00000-0  14252-3 0  9996
2 55281  70.0001 307.4567 0003537 270.1164  89.9589 14.98322380135762
Source of the keplerian elements: AFSPC